Dewpoint
75 71 71 71 70 75 72 69 74 73 71 71 71 71 71 67 64 66 63 64 64 59
74 74 71 73 73 69 71 70 74 73 71 71 71 71 71 66 66 64 63 61 61 57
73 74 73 73 75 75 74 73 73 72 71 71 71 71 70 67 66 64 57 55 61 59
71 72 73 72 75 75 74 74 74 73 72 71 71 70 69 67 65 61 60 59 59 58
71 72 71 71 74 74 74 74 73 73 72 71 70 70 67 62 60 59 57 56 56 54
71 71 71 72 73 74 74 73 72 72 72 71 68 66 65 62 60 57 55 55 55 55
72 72 73 74 74 74 74 73 73 72 71 70 67 66 60 59 59 56 55 56 56 56
73 73 74 74 74 75 74 73 72 71 70 70 67 60 57 58 58 58 58 57 56 56
76 74 74 75 74 75 73 73 71 70 70 68 59 58 56 55 54 57 57 56 57 55
76 74 74 74 74 73 72 71 70 70 70 68 65 58 57 58 52 54 56 57 54 48
75 74 75 74 74 73 71 71 70 70 69 68 64 58 58 58 54 54 56 55 54 54
73 73 73 73 72 71 70 70 70 69 69 68 65 58 57 57 52 53 55 55 56 56
74 73 73 72 72 73 70 69 68 68 68 65 65 57 56 55 44 52 51 56 57 57
76 74 74 69 68 68 67 70 70 68 68 66 63 59 55 54 50 45 49 50 52 51
Lifted_Index
-6 -6 -5 -5 -5 -5 -6 -6 -6 -5 -3 -3 -2 -2 -2 -1 1 2 3 4 4 5
-6 -6 -5 -5 -5 -5 -5 -6 -6 -4 -3 -2 -2 -2 -2 -1 1 3 4 5 5 6
-6 -6 -5 -5 -5 -6 -5 -5 -5 -4 -3 -2 -2 -2 -1 0 2 3 5 6 6 6
-6 -6 -6 -6 -6 -6 -5 -5 -4 -3 -2 -2 -2 -1 0 2 3 4 6 7 7 8
-6 -6 -6 -6 -6 -6 -5 -4 -3 -2 -2 -1 -1 0 2 4 5 6 7 7 8 8
-6 -6 -6 -6 -6 -6 -5 -4 -3 -2 -1 -1 0 2 4 6 7 7 8 8 8 8
-7 -6 -6 -7 -6 -6 -5 -4 -3 -2 -1 -0 1 3 6 7 8 8 8 8 8 7
-7 -7 -7 -7 -7 -6 -6 -5 -3 -2 -2 -0 1 3 5 6 8 9 8 8 8 7
-8 -7 -7 -7 -7 -6 -5 -4 -3 -2 -2 -1 1 2 3 6 8 9 8 8 8 8
-8 -8 -8 -7 -7 -6 -5 -4 -3 -3 -2 -1 0 2 3 6 8 8 8 8 8 9
-8 -8 -8 -8 -7 -6 -5 -4 -4 -3 -2 -1 0 1 4 7 9 8 8 8 8 8
-8 -8 -8 -7 -7 -6 -5 -4 -4 -3 -3 -1 -0 1 4 8 9 8 8 7 7 7
-8 -8 -7 -7 -6 -5 -4 -4 -4 -3 -3 -1 -0 2 5 8 9 8 7 7 7 7
-8 -8 -7 -6 -5 -4 -4 -4 -4 -3 -2 -1 -0 2 5 9 9 8 7 7 7 7